Location: Cantaing
(50.1487°N, 3.1675°E)
Time: 14:51:05
(UTC+00:00)

Meteor 2-10 Rocket - Pass Details

Date: 14 January 2026
Orbit: 733 x 881 km, 81.2° (Epoch: 18 February)

Event Time Altitude Azimuth Distance (km) Brightness Sun altitude
Rises 05:50:35 0° 195° (SSW) 3,167 6.7 -17.1°
Reaches altitude 10° 05:52:53 10° 197° (SSW) 2,260 5.9 -16.7°
Maximum altitude 05:57:57 77° 284° (WNW) 791 3.4 -15.9°
Drops below altitude 10° 06:03:15 10° 10° (N) 2,357 6.0 -15.1°
Sets 06:05:41 0° 12° (NNE) 3,314 6.8 -14.7°
